Simultaneous Nadir Overpasses (SNOs) Predictions

Prediction of SNOs between METOP-B and TERRA Satellite Orbit:

Table of predicted SNOs for the next 14.0 days since TLE Epoch: 9/21/2024
Index Date (METOP-B) Time (METOP-B) Lat,Lon (METOP-B) SZA (METOP-B ) Date (TERRA) Time (TERRA) Lat,Lon (TERRA) SZA (TERRA ) Distance(km) Time Diff (sec)
1 09/23/2024 02:28:57 79.77, 159.04 80.46 09/23/2024 02:29:29 79.76, 158.90 80.44 3.15 32
2 09/23/2024 03:19:34 -79.90, -32.47 99.35 09/23/2024 03:18:47 -79.90, -32.43 99.36 0.87 47
3 09/25/2024 16:59:11 79.73, -58.83 81.43 09/25/2024 16:59:38 79.73, -58.89 81.43 1.21 27
4 09/25/2024 17:49:45 -79.96, 110.53 98.23 09/25/2024 17:48:54 -79.95, 110.38 98.26 3.13 51
5 09/28/2024 07:29:26 79.69, 83.20 82.39 09/28/2024 07:29:47 79.70, 83.31 82.41 2.39 21
6 09/28/2024 08:20:00 -79.92,-107.43 97.27 09/28/2024 08:19:03 -79.92,-107.39 97.28 0.94 57
7 09/30/2024 21:59:39 79.70,-134.29 83.43 09/30/2024 21:59:54 79.70,-134.23 83.43 1.21 15
8 09/30/2024 22:50:13 -79.93, 35.09 96.23 09/30/2024 22:49:10 -79.93, 35.09 96.25 0.07 63
9 10/03/2024 12:29:52 79.70, 8.13 84.44 10/03/2024 12:30:00 79.70, 8.21 84.45 1.63 8



Historial Predications of SNOs between METOP-B and TERRA
